[[[{"header":{"parameterUnit":"kt","parameterCategory":2,"dx":1,"dy":1,"la1":30.253999710083008,"la2":30.299108505249023,"lo1":-89.0895004272461,"lo2":-89.04439544677734,"nx":28,"ny":28,"refTime":"2022-09-27T21:00:00:Z","depth":0,"parameterNumber":1,"parameterNumberName":"U-component_of_WINDS"},"data":[-6.4244,-6.4444,-6.4408,-6.4618,-6.4621,-6.4759,-6.4796,-6.484,-6.4865,-6.5024,-6.5108,-6.5091,-6.5101,-6.5192,-6.5281,-6.527,-6.5313,-6.5409,-6.5382,-6.4982,-6.4924,-6.4869,-6.4822,-6.5418,-6.5419,-6.5805,-6.5808,-6.5811,-6.3951,-6.3956,-6.4057,-6.413,-6.4216,-6.41,-6.4148,-6.4228,-6.4354,-6.4386,-6.4467,-6.4603,-6.4706,-6.4682,-6.4774,-6.4866,-6.4818,-6.4894,-6.489,-6.4894,-6.4463,-6.4413,-6.4931,-6.4931,-6.4931,-6.4931,-6.4931,-6.4931,-6.3409,-6.3531,-6.3554,-6.3663,-6.3689,-6.3738,-6.3847,-6.3823,-6.392,-6.4013,-6.3949,-6.409,-6.4115,-6.4208,-6.4229,-6.4338,-6.4247,-6.432,-6.4339,-6.436,-6.439,-6.3844,-6.435,-6.4349,-6.4347,-6.4346,-6.4345,0,-6.3004,-6.2965,-6.3059,-6.3143,-6.322,-6.3281,-6.3331,-6.3396,-6.3301,-6.3385,-6.3504,-6.3567,-6.3689,-6.3797,-6.3874,-6.3881,-6.3774,-6.3756,-6.3807,-6.3845,-6.3868,-6.3863,-6.3167,-6.3744,-6.3738,-6.3735,-6.3732,-6.373,-6.246,-6.2604,-6.261,-6.2681,-6.2699,-6.2815,-6.2876,-6.2781,-6.2851,-6.2897,-6.3008,-6.3113,-6.3194,-6.339,-6.3361,-6.3452,-6.3402,-6.3627,-6.3415,-6.3443,-6.3412,-6.3407,-6.3422,-6.3673,-6.368,-6.3686,-6.3691,0,-6.2158,-6.2097,-6.2309,-6.23,-6.2302,-6.2459,-6.2451,-6.2567,-6.253,-6.2685,-6.2716,-6.2661,-6.2779,-6.2712,-6.2833,-6.2795,-6.3053,-6.2997,-6.3043,-6.3031,-6.323,-6.3215,-6.3877,-6.396,-6.3334,-6.334,-6.3345,0,-6.1673,-6.1866,-6.1765,-6.1892,-6.2102,-6.2002,-6.2213,-6.2203,-6.2223,-6.2344,-6.2207,-6.2324,-6.222,-6.2327,-6.2271,-6.2468,-6.2489,-6.2474,-6.2459,-6.2491,-6.2494,-6.2532,-6.2506,-6.241,-6.2407,-6.2404,-6.2401,0,-6.1213,-6.1383,-6.1586,-6.1616,-6.1627,-6.1724,-6.1733,-6.1755,-6.1816,-6.1884,-6.1923,-6.2009,-6.2058,-6.2126,-6.2055,-6.1915,-6.2293,-6.2085,-6.2278,-6.2281,-6.2372,-6.2368,-6.2964,-6.2397,-6.2396,-6.2395,-6.2394,0,-6.0814,-6.0885,-6.1189,-6.1194,-6.1244,-6.1377,-6.1456,-6.1554,-6.1587,-6.1561,-6.1613,-6.1517,-6.1681,-6.148,-6.1705,-6.1543,-6.1598,-6.1597,-6.1609,-6.1627,-6.1406,-6.1759,-6.2327,-6.2388,-6.1633,-6.1627,-6.1621,0,-6.0306,-6.0595,-6.0512,-6.0802,-6.0927,-6.0767,-6.0912,-6.0946,-6.0923,-6.1025,-6.0997,-6.1115,-6.0951,-6.0979,-6.1098,-6.1077,-6.1287,-6.1045,-6.1199,-6.1206,-6.1201,-6.1722,-6.1827,-6.2208,-6.1539,-6.1547,-6.1554,0,-5.9905,-5.9917,-5.9975,-6.0005,-6.0033,-6.0137,-6.0304,-6.0398,-6.0471,-6.0522,-6.0662,-6.0822,-6.0706,-6.0754,-6.0685,-6.0814,-6.1142,-6.0672,-6.0672,-6.0764,-6.149,-6.1589,-6.1654,-6.1067,-6.1077,-6.1084,-6.1488,0,-5.9326,-5.9462,-5.9613,-5.9685,-5.9754,-5.9931,-5.9862,-5.9942,-5.9869,-5.9841,-6.0043,-6.0053,-6.0151,-6.0204,-6.0134,-6.0447,-6.0386,-6.0261,-6.0067,-6.0407,-6.0539,-6.0592,-5.9876,-5.987,-5.9864,-5.986,0,0,-5.8858,-5.9052,-5.8957,-5.9116,-5.9169,-5.9002,-5.9198,-5.9229,-5.9299,-5.934,-5.9229,-5.9461,-5.9476,-5.9729,-5.9829,-5.9866,-5.9918,-5.9802,-6.0244,-6.0288,-6.0327,-6.0469,-6.0526,-5.9851,-5.9849,-5.9847,-5.9845,0,-5.8634,-5.865,-5.8844,-5.8873,-5.8912,-5.8872,-5.8919,-5.8929,-5.8921,-5.9116,-5.8979,-5.9091,-5.9279,-5.9314,-5.9357,-5.9767,-5.966,-5.9801,-6.0047,-6.0194,-6.0244,-6.0288,-6.0439,-6.0493,-5.9833,-5.9834,-5.9834,0,-5.8232,-5.8238,-5.8324,-5.8435,-5.8459,-5.8592,-5.8368,-5.8517,-5.8615,-5.8427,-5.8626,-5.8624,-5.8664,-5.891,-5.9018,-5.8921,-5.943,-5.9256,-5.9287,-5.93,-5.9439,-5.9499,-5.9553,-5.8848,-5.8844,-5.8842,0,0,-5.8048,-5.8173,-5.8152,-5.8382,-5.8406,-5.8352,-5.8415,-5.8349,-5.8388,-5.8405,-5.8401,-5.8444,-5.8551,-5.8625,-5.8723,-5.9003,-5.9005,-5.9138,-5.9184,-5.9222,-5.9256,-5.9405,-5.9465,-5.883,-5.883,-5.8829,0,0,-5.7961,-5.7946,-5.7865,-5.8122,-5.8164,-5.816,-5.8303,-5.8204,-5.8286,-5.8258,-5.8155,-5.8162,-5.8391,-5.8395,-5.8243,-5.8654,-5.8461,-5.8496,-5.8644,-5.8702,-5.8747,-5.8745,-5.802,0,0,0,0,0,-5.7698,-5.7946,-5.7873,-5.7906,-5.8047,-5.82,-5.8217,-5.8137,-5.8003,-5.8118,-5.8098,-5.7978,-5.8292,-5.8155,-5.819,-5.8362,-5.8677,-5.8704,-5.8729,-5.8986,-5.9047,-5.9098,0,0,0,0,0,0,-5.771,-5.7751,-5.7866,-5.7874,-5.7905,-5.819,-5.7945,-5.793,-5.7988,-5.7963,-5.7985,-5.7978,-5.7914,-5.8132,-5.8165,-5.833,-5.8009,-5.8687,-5.871,-5.8731,-5.9007,-5.9057,-5.9099,0,0,0,0,0,-5.772,-5.7752,-5.7999,-5.787,-5.7897,-5.785,-5.7935,-5.792,-5.7964,-5.7936,-5.7925,-5.7899,-5.7921,-5.7942,-5.8151,-5.8317,-5.7986,-5.7998,-5.8702,-5.872,-5.8737,-5.9031,0,0,0,0,0,0,-5.7727,-5.7741,-5.8003,-5.8008,-5.777,-5.7832,-5.7839,-5.7913,-5.7932,-5.7924,-5.7843,-5.7823,-5.7929,-5.7944,-5.7962,-5.8317,-5.7967,-5.798,-5.7988,-5.8716,-5.873,-5.8743,0,0,0,0,0,0,-5.7722,-5.7746,-5.8005,-5.7885,-5.7875,-5.7817,-5.7823,-5.7988,-5.7934,-5.7838,-5.7821,-5.7834,-5.7902,-5.7946,-5.7959,-5.8221,-5.7953,-5.7965,-5.7973,-5.7978,-5.8728,-5.8739,0,0,0,0,0,0,-5.7731,-5.7751,-5.7882,-5.7876,-5.7866,-5.7918,-5.7961,-5.811,-5.783,-5.784,-5.7803,-5.779,-5.7909,-5.7919,-5.7959,-5.8216,-5.8219,-5.7953,-5.7961,-5.7967,-5.7971,0,0,0,0,0,0,0,-5.7738,-5.762,-5.7972,-5.7868,-5.786,-5.8056,-5.8057,-5.8059,-5.7827,-5.7816,-5.7806,-5.7795,-5.7884,-5.7897,-5.791,-5.8212,0,0,-5.7952,-5.7958,0,0,0,0,0,0,0,0,-5.7609,-5.7617,-5.7972,-5.7974,-5.7975,-5.8056,-5.8057,-5.8058,-5.7825,-5.7817,-5.7808,-5.78,-5.7887,-5.7898,-5.7909,0,0,0,0,0,0,0,0,0,0,0,0,0,0,0,-5.7973,-5.7973,0,-5.8056,-5.8057,-5.8058,-5.7824,-5.7817,-5.781,-5.7803,-5.789,-5.7899,-5.7908,0,0,0,0,0,0,0,0,0,0,0,0,0,0,0,0,0,0,0,0,0,0,0,0,0,0,0,0,0,0,0,0,0,0,0,0,0,0,0,0,0,0,0,0,0,0,0,0,0,0,0,0,0,0,0,0,0,0,0,0,0,0,0,0,0,0,0,0,0]}],[{"header":{"parameterUnit":"kt","parameterCategory":2,"dx":1,"dy":1,"la1":30.253999710083008,"la2":30.299108505249023,"lo1":-89.0895004272461,"lo2":-89.04439544677734,"nx":28,"ny":28,"refTime":"2022-09-27T21:00:00:Z","depth":0,"parameterNumber":2,"parameterNumberName":"V-component_of_WINDS"},"data":[-16.8914,-16.92,-16.9179,-16.9492,-16.9525,-16.9733,-16.9799,-16.9881,-16.994,-17.018,-17.0312,-17.0314,-17.0358,-17.0506,-17.0644,-17.0639,-17.0699,-17.0817,-17.0791,-17.0293,-17.0222,-17.0155,-17.0088,-17.083,-17.0831,-17.131,-17.1315,-17.1318,-16.8549,-16.8587,-16.8747,-16.8887,-16.9023,-16.8897,-16.8995,-16.9115,-16.9302,-16.9376,-16.9506,-16.9713,-16.9871,-16.9874,-17.002,-17.0146,-17.0092,-17.0187,-17.0176,-17.0185,-16.9651,-16.9581,-17.0228,-17.0228,-17.0228,-17.0227,-17.0227,-17.0227,-16.7877,-16.805,-16.8123,-16.8295,-16.8359,-16.8451,-16.8609,-16.861,-16.8762,-16.8917,-16.8856,-16.9065,-16.913,-16.9292,-16.9339,-16.9497,-16.9386,-16.948,-16.9504,-16.9528,-16.956,-16.887,-16.952,-16.9518,-16.9516,-16.9514,-16.9513,0,-16.7378,-16.7349,-16.7501,-16.7648,-16.7772,-16.7882,-16.7977,-16.8073,-16.7995,-16.8123,-16.8306,-16.8406,-16.86,-16.8765,-16.8895,-16.8922,-16.8799,-16.8783,-16.8848,-16.8881,-16.8895,-16.889,-16.8021,-16.8764,-16.8758,-16.8753,-16.875,-16.8747,-16.6698,-16.6902,-16.6967,-16.7076,-16.7123,-16.7301,-16.74,-16.7317,-16.7425,-16.7526,-16.7679,-16.7844,-16.7972,-16.8262,-16.8253,-16.8396,-16.8337,-16.8624,-16.8357,-16.8381,-16.834,-16.8329,-16.8348,-16.8677,-16.8686,-16.8693,-16.8699,0,-16.6317,-16.628,-16.6587,-16.6629,-16.6645,-16.6861,-16.6893,-16.7059,-16.7039,-16.7263,-16.731,-16.7278,-16.7455,-16.74,-16.7589,-16.7554,-16.7899,-16.7838,-16.7876,-16.7861,-16.8111,-16.8089,-16.8936,-16.9041,-16.8271,-16.8278,-16.8285,0,-16.5721,-16.5991,-16.5919,-16.61,-16.6395,-16.6304,-16.6597,-16.6609,-16.6666,-16.6841,-16.6694,-16.6861,-16.6763,-16.6921,-16.6869,-16.7141,-16.7176,-16.7165,-16.7148,-16.7179,-16.7181,-16.7232,-16.7196,-16.7102,-16.7098,-16.7094,-16.7091,0,-16.5128,-16.5406,-16.5699,-16.5755,-16.5825,-16.5964,-16.5998,-16.606,-16.6158,-16.6274,-16.6335,-16.6476,-16.6553,-16.6662,-16.6595,-16.6416,-16.6927,-16.6667,-16.6914,-16.6917,-16.703,-16.7024,-16.7789,-16.7086,-16.7084,-16.7083,-16.7081,0,-16.464,-16.4767,-16.5199,-16.5252,-16.5328,-16.552,-16.5655,-16.5806,-16.5881,-16.5862,-16.5952,-16.5847,-16.6082,-16.5828,-16.6148,-16.5935,-16.6017,-16.6028,-16.6044,-16.6061,-16.5779,-16.6217,-16.6952,-16.7026,-16.6077,-16.6069,-16.6061,0,-16.3971,-16.4397,-16.4323,-16.4733,-16.4921,-16.4745,-16.4955,-16.5027,-16.502,-16.5173,-16.5161,-16.5337,-16.5137,-16.5183,-16.535,-16.5343,-16.5621,-16.5304,-16.5521,-16.553,-16.5507,-16.6183,-16.6306,-16.6797,-16.5953,-16.5965,-16.5973,0,-16.3448,-16.3535,-16.3614,-16.3673,-16.3759,-16.3915,-16.4156,-16.4313,-16.442,-16.4517,-16.4715,-16.496,-16.4817,-16.4897,-16.4825,-16.5001,-16.543,-16.4824,-16.4824,-16.4935,-16.5894,-16.601,-16.6094,-16.5342,-16.5355,-16.5365,-16.5887,0,-16.2718,-16.2926,-16.3137,-16.3277,-16.3389,-16.3643,-16.3588,-16.3712,-16.3633,-16.3619,-16.3908,-16.3951,-16.4107,-16.4186,-16.4109,-16.4532,-16.4451,-16.4298,-16.4046,-16.449,-16.466,-16.473,-16.3797,-16.3789,-16.3783,-16.3777,0,0,-16.2086,-16.2384,-16.2295,-16.253,-16.2619,-16.2432,-16.2708,-16.2771,-16.2905,-16.2969,-16.2828,-16.3182,-16.3223,-16.358,-16.3714,-16.3777,-16.3846,-16.3694,-16.4279,-16.4336,-16.4388,-16.4571,-16.4644,-16.3766,-16.3763,-16.3761,-16.3759,0,-16.1809,-16.1864,-16.214,-16.2204,-16.2294,-16.2267,-16.2334,-16.2389,-16.2392,-16.2677,-16.2515,-16.2681,-16.2968,-16.3032,-16.3102,-16.3649,-16.3516,-16.3701,-16.4015,-16.4216,-16.4281,-16.4338,-16.4532,-16.4603,-16.3743,-16.3744,-16.3744,0,-16.1283,-16.1327,-16.1455,-16.1652,-16.1709,-16.1907,-16.163,-16.1851,-16.1995,-16.1775,-16.206,-16.2077,-16.2157,-16.2503,-16.2656,-16.2532,-16.3219,-16.2992,-16.3032,-16.3047,-16.3238,-16.3316,-16.3386,-16.2468,-16.2463,-16.246,0,0,-16.105,-16.1244,-16.1263,-16.1589,-16.1636,-16.1599,-16.1698,-16.163,-16.171,-16.1743,-16.1761,-16.1841,-16.2005,-16.2115,-16.2266,-16.2655,-16.2662,-16.2838,-16.2898,-16.2947,-16.299,-16.3193,-16.3271,-16.2444,-16.2444,-16.2443,0,0,-16.0937,-16.0975,-16.0882,-16.1254,-16.1338,-16.1375,-16.1574,-16.146,-16.1591,-16.1556,-16.1446,-16.1463,-16.1785,-16.1807,-16.1602,-16.2174,-16.1927,-16.1974,-16.2149,-16.2224,-16.2283,-16.2271,-16.1322,0,0,0,0,0,-16.0627,-16.0969,-16.0886,-16.094,-16.1187,-16.1422,-16.1453,-16.1373,-16.12,-16.1359,-16.1355,-16.1206,-16.1673,-16.149,-16.1543,-16.1772,-16.224,-16.2276,-16.231,-16.2627,-16.2706,-16.2773,0,0,0,0,0,0,-16.0647,-16.0714,-16.0876,-16.093,-16.0984,-16.1409,-16.1097,-16.1085,-16.118,-16.1148,-16.1212,-16.1208,-16.1142,-16.1457,-16.1506,-16.1725,-16.1305,-16.2254,-16.2285,-16.2312,-16.2654,-16.2718,-16.2774,0,0,0,0,0,-16.0663,-16.0717,-16.1135,-16.0924,-16.0972,-16.0948,-16.1084,-16.1071,-16.1143,-16.1139,-16.113,-16.1075,-16.1151,-16.1186,-16.1486,-16.1705,-16.1271,-16.1289,-16.2274,-16.2298,-16.232,-16.2685,0,0,0,0,0,0,-16.0675,-16.0705,-16.1142,-16.1153,-16.079,-16.0922,-16.0941,-16.106,-16.1125,-16.1121,-16.0994,-16.0968,-16.1161,-16.1186,-16.1215,-16.1703,-16.1242,-16.1261,-16.1273,-16.2292,-16.2311,-16.2328,0,0,0,0,0,0,-16.0675,-16.0716,-16.1148,-16.0983,-16.0974,-16.09,-16.0916,-16.1158,-16.1128,-16.0976,-16.0956,-16.0982,-16.1117,-16.1189,-16.121,-16.159,-16.1221,-16.1239,-16.1251,-16.1259,-16.2308,-16.2323,0,0,0,0,0,0,-16.0691,-16.0726,-16.0979,-16.0973,-16.0964,-16.1084,-16.111,-16.1367,-16.0991,-16.0975,-16.0955,-16.0938,-16.1124,-16.1143,-16.1208,-16.1581,-16.1588,-16.1221,-16.1234,-16.1242,-16.1248,0,0,0,0,0,0,0,-16.0703,-16.0491,-16.1077,-16.0965,-16.0956,-16.1257,-16.126,-16.1263,-16.0988,-16.0973,-16.0959,-16.0945,-16.1118,-16.1137,-16.1157,-16.1573,0,0,-16.122,-16.1228,0,0,0,0,0,0,0,0,-16.0474,-16.0487,-16.1077,-16.1079,-16.1082,-16.1258,-16.126,-16.1263,-16.0985,-16.0973,-16.0962,-16.0951,-16.1123,-16.1139,-16.1155,0,0,0,0,0,0,0,0,0,0,0,0,0,0,0,-16.1077,-16.1079,0,-16.1258,-16.126,-16.1262,-16.0983,-16.0974,-16.0964,-16.0955,-16.1127,-16.114,-16.1154,0,0,0,0,0,0,0,0,0,0,0,0,0,0,0,0,0,0,0,0,0,0,0,0,0,0,0,0,0,0,0,0,0,0,0,0,0,0,0,0,0,0,0,0,0,0,0,0,0,0,0,0,0,0,0,0,0,0,0,0,0,0,0,0,0,0,0,0,0]}]]]